VRE739 DFFD-DIAP

Flight info

Callsign VRE739
Flight time 1h 16m
Altitude 38000
Route TUMUT1S TUMUT UG859 ONARI/N0380F240 G859 ZANOU ZANOU1S
Aircraft A319/M-SDE3FGHIRWY/LB1

Departure

Time 2026-04-25 21:57
Airport Ouagadougou Thomas Sankara International Airport (DFFD)

Arrival

Time 2026-04-25 23:14
Airport Félix-Houphouët-Boigny International Airport (DIAP)
Time Latitude Longitude Altitude Speed Heading
2026-04-25 21:33 12.35491 -1.51322 1014 ft 0 kts 32°
2026-04-25 21:53 12.35500 -1.51327 1014 ft 3 kts 313°
2026-04-25 21:53 12.35471 -1.51343 1014 ft 9 kts 189°
2026-04-25 21:54 12.35424 -1.51281 1014 ft 16 kts 124°
2026-04-25 21:54 12.35407 -1.51175 1013 ft 17 kts 27°
2026-04-25 21:54 12.35517 -1.51107 1012 ft 20 kts 36°
2026-04-25 21:54 12.35639 -1.51024 1009 ft 23 kts 33°
2026-04-25 21:55 12.35779 -1.50931 1006 ft 25 kts 33°
2026-04-25 21:55 12.35929 -1.50829 1003 ft 27 kts 33°
2026-04-25 21:55 12.36072 -1.50734 998 ft 25 kts 33°
2026-04-25 21:55 12.36222 -1.50634 994 ft 20 kts 34°
2026-04-25 21:56 12.36349 -1.50545 990 ft 24 kts 40°
2026-04-25 21:56 12.36401 -1.50468 991 ft 17 kts 43°
2026-04-25 21:56 12.36405 -1.50509 991 ft 0 kts 213°
2026-04-25 21:56 12.36402 -1.50512 991 ft 3 kts 213°
2026-04-25 21:57 12.36211 -1.50638 996 ft 70 kts 213°
2026-04-25 21:57 12.35610 -1.51039 1010 ft 133 kts 213°
2026-04-25 21:57 12.34729 -1.51629 1351 ft 155 kts 211°
2026-04-25 21:57 12.33828 -1.52221 2080 ft 153 kts 211°
2026-04-25 21:58 12.32937 -1.52795 2787 ft 154 kts 211°
2026-04-25 21:58 12.31984 -1.53431 3255 ft 174 kts 212°
2026-04-25 21:58 12.30910 -1.54153 3610 ft 196 kts 212°
2026-04-25 21:58 12.29697 -1.54969 3973 ft 220 kts 212°
2026-04-25 21:59 12.28350 -1.55875 4433 ft 245 kts 212°
2026-04-25 21:59 12.26857 -1.56878 4973 ft 266 kts 212°
2026-04-25 21:59 12.25282 -1.57937 5806 ft 275 kts 213°
2026-04-25 22:00 12.22022 -1.60131 7578 ft 286 kts 213°
2026-04-25 22:00 12.20343 -1.61257 8489 ft 291 kts 212°
2026-04-25 22:00 12.18630 -1.62404 9359 ft 298 kts 212°
2026-04-25 22:00 12.16884 -1.63572 9851 ft 302 kts 212°
2026-04-25 22:01 12.15088 -1.64774 10292 ft 324 kts 213°
2026-04-25 22:01 12.13159 -1.66064 10894 ft 337 kts 212°
2026-04-25 22:01 12.11175 -1.67390 11690 ft 343 kts 212°
2026-04-25 22:01 12.09818 -1.68296 12239 ft 347 kts 212°
2026-04-25 22:02 12.07119 -1.70096 13330 ft 353 kts 212°
2026-04-25 22:02 12.05049 -1.71477 14092 ft 357 kts 212°
2026-04-25 22:02 12.02957 -1.72874 14836 ft 361 kts 213°
2026-04-25 22:02 12.00848 -1.74283 15588 ft 364 kts 213°
2026-04-25 22:03 11.98723 -1.75699 16356 ft 366 kts 212°
2026-04-25 22:03 11.96406 -1.76796 17075 ft 370 kts 196°
2026-04-25 22:03 11.93886 -1.77399 17826 ft 373 kts 193°
2026-04-25 22:03 11.91342 -1.77967 18495 ft 376 kts 193°
2026-04-25 22:04 11.88770 -1.78529 19116 ft 379 kts 193°
2026-04-25 22:04 11.86177 -1.79092 19749 ft 382 kts 193°
2026-04-25 22:04 11.83592 -1.79652 20368 ft 386 kts 193°
2026-04-25 22:04 11.80956 -1.80225 20989 ft 389 kts 193°
2026-04-25 22:05 11.78298 -1.80804 21612 ft 392 kts 193°
2026-04-25 22:05 11.75616 -1.81390 22230 ft 396 kts 194°
2026-04-25 22:05 11.72910 -1.81981 22852 ft 399 kts 194°
2026-04-25 22:05 11.70182 -1.82575 23464 ft 402 kts 194°
2026-04-25 22:06 11.67430 -1.83174 23965 ft 406 kts 194°
2026-04-25 22:06 11.64662 -1.83776 24454 ft 409 kts 194°
2026-04-25 22:06 11.61867 -1.84384 24939 ft 412 kts 194°
2026-04-25 22:06 11.59052 -1.84994 25415 ft 415 kts 193°
2026-04-25 22:07 11.56214 -1.85610 25880 ft 418 kts 193°
2026-04-25 22:07 11.54326 -1.86022 26190 ft 420 kts 194°
2026-04-25 22:07 11.50483 -1.86860 26803 ft 424 kts 193°
2026-04-25 22:07 11.47584 -1.87493 27264 ft 427 kts 193°
2026-04-25 22:08 11.44670 -1.88129 27709 ft 430 kts 193°
2026-04-25 22:08 11.41770 -1.88760 28155 ft 433 kts 193°
2026-04-25 22:08 11.38820 -1.89400 28597 ft 436 kts 193°
2026-04-25 22:08 11.35834 -1.90047 29041 ft 439 kts 193°
2026-04-25 22:09 11.32833 -1.90696 29478 ft 442 kts 193°
2026-04-25 22:09 11.29814 -1.91351 29908 ft 445 kts 193°
2026-04-25 22:09 11.26775 -1.92014 30270 ft 448 kts 193°
2026-04-25 22:09 11.23718 -1.92681 30645 ft 451 kts 193°
2026-04-25 22:10 11.20643 -1.93348 31006 ft 453 kts 193°
2026-04-25 22:10 11.17544 -1.94018 31363 ft 456 kts 193°
2026-04-25 22:10 11.14435 -1.94693 31769 ft 456 kts 193°
2026-04-25 22:10 11.11341 -1.95368 32284 ft 455 kts 193°
2026-04-25 22:11 11.08241 -1.96045 32825 ft 453 kts 193°
2026-04-25 22:11 11.05202 -1.96707 33351 ft 452 kts 193°
2026-04-25 22:11 11.02127 -1.97377 33875 ft 451 kts 193°
2026-04-25 22:11 10.99085 -1.98150 34332 ft 449 kts 199°
2026-04-25 22:12 10.96129 -1.99166 34795 ft 448 kts 200°
2026-04-25 22:12 10.93182 -2.00181 35251 ft 446 kts 200°
2026-04-25 22:12 10.90245 -2.01191 35710 ft 445 kts 200°
2026-04-25 22:12 10.88305 -2.01857 36003 ft 444 kts 200°
2026-04-25 22:13 10.84401 -2.03197 36575 ft 442 kts 200°
2026-04-25 22:13 10.81491 -2.04198 36995 ft 440 kts 200°
2026-04-25 22:13 10.78585 -2.05198 37421 ft 439 kts 200°
2026-04-25 22:13 10.75689 -2.06193 37781 ft 439 kts 200°
2026-04-25 22:14 10.69921 -2.08169 37878 ft 436 kts 200°
2026-04-25 22:14 10.64220 -2.10126 37876 ft 435 kts 200°
2026-04-25 22:15 10.58487 -2.12100 37874 ft 435 kts 200°
2026-04-25 22:16 10.49879 -2.15055 37868 ft 435 kts 200°
2026-04-25 22:16 10.44144 -2.17016 37864 ft 435 kts 200°
2026-04-25 22:17 10.38408 -2.18989 37862 ft 435 kts 200°
2026-04-25 22:17 10.32665 -2.20959 37860 ft 435 kts 200°
2026-04-25 22:18 10.26919 -2.22917 37859 ft 435 kts 200°
2026-04-25 22:18 10.21211 -2.24868 37856 ft 436 kts 200°
2026-04-25 22:19 10.15466 -2.26837 37857 ft 436 kts 200°
2026-04-25 22:19 10.09716 -2.28818 37853 ft 436 kts 200°
2026-04-25 22:20 10.03959 -2.30800 37858 ft 436 kts 200°
2026-04-25 22:20 9.98204 -2.32782 37861 ft 436 kts 200°
2026-04-25 22:21 9.92449 -2.34764 37856 ft 436 kts 200°
2026-04-25 22:21 9.86737 -2.36726 37861 ft 437 kts 200°
2026-04-25 22:22 9.80971 -2.38696 37858 ft 437 kts 200°
2026-04-25 22:22 9.75215 -2.40670 37861 ft 437 kts 200°
2026-04-25 22:23 9.69455 -2.42647 37860 ft 437 kts 200°
2026-04-25 22:23 9.63686 -2.44624 37862 ft 437 kts 200°
2026-04-25 22:24 9.57948 -2.46590 37867 ft 437 kts 200°
2026-04-25 22:24 9.52180 -2.48573 37869 ft 438 kts 199°
2026-04-25 22:25 9.46405 -2.50548 37879 ft 438 kts 199°
2026-04-25 22:25 9.40624 -2.52525 37876 ft 438 kts 199°
2026-04-25 22:26 9.34835 -2.54503 37885 ft 439 kts 199°
2026-04-25 22:26 9.29048 -2.56484 37883 ft 439 kts 199°
2026-04-25 22:27 9.23301 -2.58452 37886 ft 439 kts 199°
2026-04-25 22:27 9.17522 -2.60432 37887 ft 439 kts 199°
2026-04-25 22:28 9.11731 -2.62409 37887 ft 439 kts 199°
2026-04-25 22:28 9.05937 -2.64388 37894 ft 439 kts 199°
2026-04-25 22:29 9.00144 -2.66361 37895 ft 439 kts 199°
2026-04-25 22:29 8.94359 -2.68331 37897 ft 439 kts 199°
2026-04-25 22:30 8.86653 -2.70960 37897 ft 439 kts 199°
2026-04-25 22:30 8.81834 -2.72598 37906 ft 439 kts 199°
2026-04-25 22:31 8.75062 -2.74900 37913 ft 440 kts 199°
2026-04-25 22:31 8.69259 -2.76871 37917 ft 440 kts 199°
2026-04-25 22:32 8.63493 -2.78828 37924 ft 440 kts 199°
2026-04-25 22:32 8.57694 -2.80795 37926 ft 440 kts 199°
2026-04-25 22:33 8.51893 -2.82766 37925 ft 440 kts 199°
2026-04-25 22:33 8.46086 -2.84736 37928 ft 440 kts 199°
2026-04-25 22:34 8.40287 -2.86697 37932 ft 440 kts 199°
2026-04-25 22:34 8.34486 -2.88668 37930 ft 440 kts 199°
2026-04-25 22:35 8.28682 -2.90646 37934 ft 440 kts 199°
2026-04-25 22:35 8.22884 -2.92614 37930 ft 440 kts 199°
2026-04-25 22:36 8.17085 -2.94575 37931 ft 439 kts 199°
2026-04-25 22:36 8.11289 -2.96532 37932 ft 439 kts 199°
2026-04-25 22:37 8.05496 -2.98493 37935 ft 439 kts 199°
2026-04-25 22:37 7.99700 -3.00467 37942 ft 439 kts 199°
2026-04-25 22:38 7.93943 -3.02414 37939 ft 439 kts 199°
2026-04-25 22:38 7.88147 -3.04368 37941 ft 439 kts 199°
2026-04-25 22:39 7.82352 -3.06326 37944 ft 439 kts 199°
2026-04-25 22:39 7.76563 -3.08288 37951 ft 439 kts 199°
2026-04-25 22:40 7.70784 -3.10245 37952 ft 438 kts 199°
2026-04-25 22:40 7.65005 -3.12201 37950 ft 438 kts 199°
2026-04-25 22:41 7.59223 -3.14154 37955 ft 438 kts 198°
2026-04-25 22:41 7.53442 -3.16095 37955 ft 438 kts 198°
2026-04-25 22:42 7.47667 -3.18037 37958 ft 438 kts 198°
2026-04-25 22:42 7.41888 -3.19987 37955 ft 438 kts 198°
2026-04-25 22:43 7.36119 -3.21938 37961 ft 437 kts 198°
2026-04-25 22:43 7.30346 -3.23887 37953 ft 437 kts 198°
2026-04-25 22:44 7.24613 -3.25818 37946 ft 438 kts 198°
2026-04-25 22:44 7.18837 -3.27767 37944 ft 438 kts 198°
2026-04-25 22:45 7.13059 -3.29718 37945 ft 438 kts 198°
2026-04-25 22:45 7.07276 -3.31661 37940 ft 438 kts 198°
2026-04-25 22:46 7.01495 -3.33607 37940 ft 438 kts 198°
2026-04-25 22:46 6.95702 -3.35560 37942 ft 439 kts 198°
2026-04-25 22:47 6.89908 -3.37511 37939 ft 439 kts 198°
2026-04-25 22:47 6.84108 -3.39455 37932 ft 440 kts 198°
2026-04-25 22:48 6.78305 -3.41406 37937 ft 440 kts 198°
2026-04-25 22:48 6.72495 -3.43355 37935 ft 440 kts 198°
2026-04-25 22:49 6.66685 -3.45308 37827 ft 440 kts 198°
2026-04-25 22:49 6.63762 -3.46292 36743 ft 449 kts 198°
2026-04-25 22:49 6.60747 -3.47306 35333 ft 465 kts 198°
2026-04-25 22:50 6.57670 -3.48340 34547 ft 465 kts 198°
2026-04-25 22:50 6.54653 -3.49354 33901 ft 462 kts 198°
2026-04-25 22:50 6.51619 -3.50373 33180 ft 458 kts 198°
2026-04-25 22:50 6.48610 -3.51382 32485 ft 454 kts 198°
2026-04-25 22:51 6.45632 -3.52382 31811 ft 449 kts 198°
2026-04-25 22:51 6.42679 -3.53374 31146 ft 446 kts 198°
2026-04-25 22:51 6.39751 -3.54357 30498 ft 442 kts 198°
2026-04-25 22:51 6.36846 -3.55332 29846 ft 439 kts 198°
2026-04-25 22:52 6.33957 -3.56302 29134 ft 435 kts 198°
2026-04-25 22:52 6.31106 -3.57260 28463 ft 431 kts 198°
2026-04-25 22:52 6.28277 -3.58208 27825 ft 426 kts 198°
2026-04-25 22:52 6.26383 -3.58843 27412 ft 423 kts 198°
2026-04-25 22:53 6.22719 -3.60072 26635 ft 417 kts 198°
2026-04-25 22:53 6.19979 -3.60991 26062 ft 413 kts 198°
2026-04-25 22:53 6.17271 -3.61898 25508 ft 409 kts 198°
2026-04-25 22:53 6.14583 -3.62798 24976 ft 405 kts 198°
2026-04-25 22:54 6.11924 -3.63687 24459 ft 402 kts 198°
2026-04-25 22:54 6.09284 -3.64572 23937 ft 398 kts 198°
2026-04-25 22:54 6.06666 -3.65451 23404 ft 395 kts 198°
2026-04-25 22:54 6.04067 -3.66321 22790 ft 392 kts 198°
2026-04-25 22:55 6.01486 -3.67185 22200 ft 389 kts 198°
2026-04-25 22:55 5.98934 -3.68043 21630 ft 385 kts 198°
2026-04-25 22:55 5.96401 -3.68893 21061 ft 382 kts 198°
2026-04-25 22:55 5.93890 -3.69736 20496 ft 379 kts 198°
2026-04-25 22:56 5.91400 -3.70570 19953 ft 376 kts 198°
2026-04-25 22:56 5.88928 -3.71398 19419 ft 373 kts 198°
2026-04-25 22:56 5.86480 -3.72220 18902 ft 370 kts 198°
2026-04-25 22:56 5.84045 -3.73038 18394 ft 367 kts 198°
2026-04-25 22:57 5.81631 -3.73847 17842 ft 365 kts 197°
2026-04-25 22:57 5.79238 -3.74650 17234 ft 361 kts 197°
2026-04-25 22:57 5.76864 -3.75445 16526 ft 358 kts 197°
2026-04-25 22:57 5.74514 -3.76232 15873 ft 355 kts 197°
2026-04-25 22:58 5.72207 -3.77004 15243 ft 352 kts 197°
2026-04-25 22:58 5.69890 -3.77781 14622 ft 350 kts 197°
2026-04-25 22:58 5.67585 -3.78554 14013 ft 347 kts 197°
2026-04-25 22:58 5.65302 -3.79318 13374 ft 345 kts 197°
2026-04-25 22:59 5.63028 -3.80036 12714 ft 340 kts 191°
2026-04-25 22:59 5.60713 -3.80458 12067 ft 336 kts 188°
2026-04-25 22:59 5.58422 -3.80864 11441 ft 332 kts 188°
2026-04-25 22:59 5.56136 -3.81198 10647 ft 332 kts 178°
2026-04-25 23:00 5.53920 -3.80914 10457 ft 311 kts 167°
2026-04-25 23:00 5.51840 -3.80528 10123 ft 300 kts 167°
2026-04-25 23:00 5.49809 -3.80146 9647 ft 295 kts 167°
2026-04-25 23:00 5.47804 -3.79763 9095 ft 292 kts 167°
2026-04-25 23:01 5.45819 -3.79373 8530 ft 289 kts 167°
2026-04-25 23:01 5.43845 -3.79022 7959 ft 287 kts 175°
2026-04-25 23:01 5.41905 -3.79353 7426 ft 285 kts 203°
2026-04-25 23:01 5.40330 -3.80523 6903 ft 283 kts 231°
2026-04-25 23:02 5.39473 -3.82265 6395 ft 279 kts 258°
2026-04-25 23:02 5.39257 -3.84163 5841 ft 276 kts 266°
2026-04-25 23:02 5.39148 -3.86066 5310 ft 271 kts 266°
2026-04-25 23:02 5.39055 -3.87935 4782 ft 266 kts 267°
2026-04-25 23:03 5.38971 -3.89728 4612 ft 247 kts 266°
2026-04-25 23:03 5.38855 -3.91371 4328 ft 227 kts 261°
2026-04-25 23:03 5.38462 -3.92854 3899 ft 214 kts 246°
2026-04-25 23:03 5.37703 -3.94092 3540 ft 203 kts 230°
2026-04-25 23:04 5.36651 -3.94978 3173 ft 194 kts 213°
2026-04-25 23:04 5.35876 -3.95384 2963 ft 186 kts 206°
2026-04-25 23:04 5.34256 -3.95869 2448 ft 181 kts 184°
2026-04-25 23:04 5.33126 -3.95417 2119 ft 181 kts 143°
2026-04-25 23:05 5.32527 -3.94362 1864 ft 172 kts 115°
2026-04-25 23:05 5.32146 -3.93228 1498 ft 168 kts 111°
2026-04-25 23:05 5.31586 -3.92292 1153 ft 151 kts 143°
2026-04-25 23:05 5.30683 -3.91867 902 ft 136 kts 165°
2026-04-25 23:06 5.29802 -3.91542 543 ft 135 kts 162°
2026-04-25 23:06 5.28914 -3.91469 395 ft 129 kts 191°
2026-04-25 23:06 5.28076 -3.91778 224 ft 126 kts 200°
2026-04-25 23:06 5.27260 -3.92127 182 ft 142 kts 204°
2026-04-25 23:07 5.26232 -3.92566 643 ft 181 kts 203°
2026-04-25 23:07 5.24986 -3.93054 1548 ft 190 kts 202°
2026-04-25 23:07 5.23794 -3.93585 2469 ft 193 kts 217°
2026-04-25 23:07 5.22983 -3.94646 2800 ft 195 kts 246°
2026-04-25 23:08 5.22777 -3.95991 2966 ft 196 kts 265°
2026-04-25 23:08 5.22741 -3.97356 3000 ft 195 kts 269°
2026-04-25 23:08 5.23196 -3.98641 3005 ft 202 kts 300°
2026-04-25 23:08 5.24068 -3.99753 3012 ft 203 kts 306°
2026-04-25 23:09 5.25015 -4.00807 3023 ft 204 kts 312°
2026-04-25 23:09 5.26098 -4.01733 2988 ft 205 kts 317°
2026-04-25 23:09 5.27219 -4.02617 2766 ft 205 kts 319°
2026-04-25 23:09 5.28522 -4.03233 2550 ft 212 kts 343°
2026-04-25 23:10 5.30000 -4.03202 2257 ft 217 kts 13°
2026-04-25 23:10 5.31269 -4.02403 2070 ft 217 kts 49°
2026-04-25 23:10 5.31889 -4.01053 1897 ft 213 kts 82°
2026-04-25 23:10 5.32018 -3.99608 1824 ft 205 kts 89°
2026-04-25 23:11 5.32078 -3.98206 1778 ft 201 kts 91°
2026-04-25 23:11 5.32101 -3.96805 1700 ft 199 kts 92°
2026-04-25 23:11 5.32068 -3.95426 1500 ft 198 kts 96°
2026-04-25 23:11 5.31975 -3.94058 1275 ft 192 kts 97°
2026-04-25 23:12 5.31804 -3.92788 1079 ft 172 kts 107°
2026-04-25 23:12 5.31230 -3.91875 909 ft 145 kts 141°
2026-04-25 23:12 5.30357 -3.91512 713 ft 132 kts 169°
2026-04-25 23:12 5.29475 -3.91353 516 ft 127 kts 179°
2026-04-25 23:13 5.28620 -3.91549 370 ft 128 kts 205°
2026-04-25 23:13 5.27819 -3.91892 159 ft 122 kts 204°
2026-04-25 23:13 5.27038 -3.92214 35 ft 113 kts 202°
2026-04-25 23:13 5.26412 -3.92471 19 ft 75 kts 203°
2026-04-25 23:14 5.26068 -3.92614 22 ft 31 kts 202°
2026-04-25 23:14 5.25879 -3.92691 22 ft 30 kts 201°
2026-04-25 23:14 5.25671 -3.92775 20 ft 34 kts 202°
2026-04-25 23:14 5.25488 -3.92853 20 ft 21 kts 214°
2026-04-25 23:15 5.25496 -3.92987 18 ft 18 kts 296°
2026-04-25 23:15 5.25471 -3.93096 18 ft 19 kts 206°
2026-04-25 23:15 5.25338 -3.93153 18 ft 17 kts 202°
2026-04-25 23:15 5.25229 -3.93195 18 ft 15 kts 201°
2026-04-25 23:16 5.25218 -3.93250 19 ft 8 kts 292°
2026-04-25 23:16 5.25225 -3.93266 18 ft 0 kts 293°